Weather History for KCQX - September, 2012

Change the Weather History Date:

Saturday, September 15, 2012

  Actual Average Record
Temperature  
Mean Temperature 66 °F -  
Max Temperature 73 °F 68 °F 84 °F (2008)
Min Temperature 59 °F 55 °F 45 °F (2001)
Cooling Degree Days 1    
Growing Degree Days 16 (Base 50)    
Moisture  
Dew Point 60 °F    
Average Humidity 80    
Maximum Humidity 94    
Minimum Humidity 54    
Precipitation  
Precipitation 0.20 in - - ()
Sea Level Pressure  
Sea Level Pressure 30.03 in    
Wind  
Wind Speed 3 mph (WSW)    
Max Wind Speed 9 mph    
Max Gust Speed 16 mph    
Visibility 9 miles    
Events Rain , Thunderstorm    
Averages and records for this station are not official NWS values.
T = Trace of Precipitation, MM = Missing Value Source: NWS Daily Summary

Daily Weather History Graph

Daily Weather History Graph

Search for Another Location

Airport or City:

Trip Planner

Search our weather history database for the weather conditions in past years. The results will help you decide how hot, cold, wet, or windy it might be!

Date:

Astronomy

Sep. 15, 2012 Rise Set
Actual Time 6:20 AM EDT 6:48 PM EDT
Civil Twilight 5:52 AM EDT 7:16 PM EDT
Nautical Twilight 5:19 AM EDT 7:49 PM EDT
Astronomical Twilight 4:46 AM EDT 8:22 PM EDT
Moon 5:48 AM EDT (9/15) 6:16 PM EDT (9/15)
Length of Visible Light 13h 23m
Length of Day
12h 27m
Waning Crescent, 0% of the Moon is Illuminated
Sep 15
Waning Crescent
Sep 15
New
Sep 22
First Quarter
Sep 29
Full
Oct 8
Last Quarter

Hourly Weather History & Observations

Time (EDT) Temp. Dew Point Humidity Pressure Visibility Wind Dir Wind Speed Gust Speed Precip Events Conditions
12:52 AM 64.9 °F 63.0 °F 93% 30.12 in 10.0 mi Calm Calm - N/A   Scattered Clouds
1:52 AM 66.0 °F 63.0 °F 90% 30.10 in 10.0 mi Variable 4.6 mph - N/A   Partly Cloudy
4:52 AM 64.9 °F 63.0 °F 93% 30.05 in 10.0 mi Variable 3.5 mph - 0.01 in   Clear
5:52 AM 66.0 °F 64.0 °F 93% 30.05 in 10.0 mi South 3.5 mph - N/A   Scattered Clouds
6:39 AM 66.2 °F 64.4 °F 94% 30.05 in 10.0 mi Calm Calm - N/A   Mostly Cloudy
6:52 AM 68.0 °F 66.0 °F 93% 30.06 in 10.0 mi Calm Calm - N/A   Mostly Cloudy
7:23 AM 69.8 °F 64.4 °F 83% 30.04 in 10.0 mi Calm Calm - N/A   Scattered Clouds
7:52 AM 69.1 °F 64.0 °F 84% 30.04 in 10.0 mi SW 3.5 mph - N/A   Clear
8:52 AM 71.1 °F 64.9 °F 81% 30.04 in 10.0 mi SW 5.8 mph - N/A   Clear
9:32 AM 73.4 °F 66.2 °F 78% 30.04 in 10.0 mi SW 6.9 mph - N/A   Mostly Cloudy
10:17 AM 73.4 °F 64.4 °F 73% 30.03 in 10.0 mi SSW 9.2 mph - N/A   Mostly Cloudy
10:22 AM 71.6 °F 64.4 °F 78% 30.02 in 10.0 mi SSW 6.9 mph - N/A   Mostly Cloudy
10:52 AM 73.9 °F 64.9 °F 73% 30.02 in 10.0 mi SW 8.1 mph 16.1 mph N/A   Mostly Cloudy
11:06 AM 66.2 °F 62.6 °F 88% 30.02 in 2.5 mi Variable 5.8 mph - 0.04 in Rain , Thunderstorm Light Rain
11:09 AM 66.2 °F 62.6 °F 88% 30.02 in 1.5 mi Calm Calm - 0.06 in Rain , Thunderstorm Heavy Rain
11:16 AM 64.4 °F 62.6 °F 94% 30.02 in 0.8 mi Variable 3.5 mph - 0.17 in Rain , Thunderstorm Heavy Rain
11:23 AM 64.4 °F 62.6 °F 94% 30.01 in 1.0 mi Variable 5.8 mph - 0.19 in Rain Light Rain
11:27 AM 64.4 °F 62.6 °F 94% 30.01 in 4.0 mi Variable 4.6 mph - 0.19 in Rain Light Rain
11:42 AM 64.4 °F 62.6 °F 94% 30.01 in 10.0 mi Variable 6.9 mph - 0.19 in   Overcast
11:50 AM 64.4 °F 62.6 °F 94% 30.01 in 10.0 mi NNW 5.8 mph - 0.19 in   Overcast
11:52 AM 64.9 °F 62.1 °F 90% 30.02 in 10.0 mi North 4.6 mph - 0.19 in   Overcast
12:52 PM 64.0 °F 59.0 °F 84% 30.02 in 10.0 mi Variable 3.5 mph - N/A   Overcast
1:52 PM 64.0 °F 57.9 °F 80% 30.00 in 10.0 mi Variable 5.8 mph - 0.00 in Rain Light Rain
2:52 PM 68.0 °F 55.0 °F 63% 29.99 in 10.0 mi NNW 8.1 mph - 0.00 in   Partly Cloudy
3:52 PM 69.1 °F 54.0 °F 58% 29.98 in 10.0 mi Variable 4.6 mph - N/A   Clear
4:52 PM 69.1 °F 52.0 °F 54% 29.99 in 10.0 mi Variable 4.6 mph - N/A   Clear
5:52 PM 66.9 °F 53.1 °F 61% 29.99 in 10.0 mi NNW 3.5 mph - N/A   Clear
6:52 PM 63.0 °F 54.0 °F 72% 30.00 in 10.0 mi Calm Calm - N/A   Clear
7:52 PM 59.0 °F 54.0 °F 83% 30.02 in 10.0 mi Calm Calm - N/A   Clear
8:52 PM 61.0 °F 51.1 °F 70% 30.03 in 10.0 mi Variable 3.5 mph - N/A   Clear
9:52 PM 63.0 °F 48.0 °F 58% 30.04 in 10.0 mi Variable 4.6 mph - N/A   Clear
10:52 PM 62.1 °F 48.9 °F 62% 30.04 in 10.0 mi Variable 4.6 mph - N/A   Clear
11:52 PM 62.1 °F 46.0 °F 56% 30.04 in 10.0 mi Variable 3.5 mph - N/A   Clear